Regional Weather Roundup
Issued by NWS Grand Forks, ND

Home | Current Version | Previous Version | Graphics & Text | Print | Product List | Glossary On
Versions: 1 2 3 4 5 6 7 8 9 10 11 12 13 14 15 16 17 18 19 20 21 22 23 24 25 26 27 28 29 30 31 32 33 34 35 36 37 38 39 40 41 42 43 44 45 46 47 48 49 50
000
ASUS43 KFGF 160410
RWRFGF
PRAIRIE TO PINES  WEATHER ROUNDUP
NATIONAL WEATHER SERVICE EASTERN NORTH DAKOTA/GRAND FORKS ND
1000 PM CST SUN JAN 15 2017

 **SATELLITE DATA USED TO AUGMENT SKY COVER AT AUTOMATED STATIONS**
 *****  WEATHER ACROSS EASTERN NORTH DAKOTA  *****

CITY           SKY/WX    TMP DP  RH WIND       PRES   REMARKS
GRAND FORKS    FAIR      12   4  70 S7        30.02S WCI   1
GRAND FRKS AFB FAIR      15   5  66 SW9       30.02S WCI   3
DEVILS LAKE    FAIR      12   5  73 SW8       29.99S WCI   0
FARGO          FAIR      16  11  80 S9        30.08S WCI   4
WAHPETON ARPT  FAIR       9   5  85 SE5       30.10F WCI   0
$$

 ***** WEATHER ACROSS CENTRAL AND WESTERN NORTH DAKOTA  *****

CITY           SKY/WX    TMP DP  RH WIND       PRES   REMARKS
BISMARCK       FAIR      -4 -11  72 CALM      30.05S
MINOT          FAIR      19   9  65 VRB3      29.95R
JAMESTOWN      FAIR       8   3  80 S3        30.02F
MINOT AFB      FAIR      14   6  71 W5        29.94S WCI   6
GARRISON         N/A      9   4  80 CALM      29.99R
WILLISTON      FAIR      14   5  67 SW6       29.99F WCI   5
DICKINSON      FAIR      18   6  59 W10       29.98S WCI   6
HETTINGER      FAIR      11   5  77 NW6       30.03S WCI   1
$$

 *****  OTHER AIRPORT OBSERVATIONS IN OUR AREA  *****

CITY           SKY/WX    TMP DP  RH WIND       PRES   REMARKS
WALHALLA       NOT AVBL
GRAFTON AIRPOR FAIR      12   7  79 SW16      30.02S WCI  -4
VALLEY CITY AR HVY SNOW   9   7  92 SW13      30.05S WCI  -7
CANDO          NOT AVBL
CAVALIER APRT    N/A     16   9  73 S9        29.98R WCI   4
GWINNER        FAIR      16  12  86 SW16      30.07S WCI   0
SHEYENNE NWR     N/A     14   8  76 SW9       29.95S WCI   2
ROLLA            N/A    N/A N/A N/A MISG        N/A
 ***** THE ABOVE OBSERVATIONS ARE NON NWS ARE NOT QUALITY
       CONTROLLED AND MAY MIS-REPORT RAIN FOR SNOW...
$$

  *****  WEATHER ACROSS NORTHERN MINNESOTA  *****

CITY           SKY/WX    TMP DP  RH WIND       PRES   REMARKS
FLAG ISLAND    FAIR      12   7  79 S8        29.96S WCI   1
WARROAD        FAIR      14   9  79 SW10G16   29.98S WCI   1
ROSEAU         FAIR      12   7  79 S9        29.99S WCI   0
HALLOCK        FAIR      10   5  79 S10       29.99S WCI  -3
THF RVR FALLS  FAIR      14  10  84 S13       30.03F WCI   0
BAUDETTE       FAIR      14   7  73 S5        29.99R WCI   6
WASKISH        FAIR      18  10  73 CALM      30.02F
CROOKSTON      FAIR      12   9  85 S13       30.06S WCI  -3
GREENBUSH NDAW   N/A     12   9  85 S10         N/A  WCI  -1
$$
  *****  WEATHER ACROSS CENTRAL AND WEST MINNESOTA  *****

CITY           SKY/WX    TMP DP  RH WIND       PRES   REMARKS
FOSSTON        FAIR      14  10  85 S15       30.05F WCI  -1
BEMIDJI        FAIR      16  12  83 S6        30.04S WCI   8
PARK RAPIDS    FAIR      12   8  84 S6        30.06F WCI   3
ELBOW LAKE     FAIR      16  13  90 E8        30.12R FOG     WCI   5
WADENA         FAIR      18  14  86 SW7       30.09S WCI   8
DETROIT LAKES  FAIR      18  16  93 S5        30.08S WCI  11
MOORHEAD       FAIR      16  12  86 S12       30.09S WCI   3
FERGUS FALLS   FAIR      12  10  92 S9        30.16S WCI   0
MORRIS MN      FAIR      12  10  92 S8        30.12S WCI   1
STAPLES        FAIR      16  12  86 S3        30.10S
$$
  *****  WEATHER ELSEWHERE ACROSS MINNESOTA  *****

CITY           SKY/WX    TMP DP  RH WIND       PRES   REMARKS
DULUTH         FAIR      22  16  78 W12       30.09S WCI  10
INTRNTL FALLS  FAIR      21  13  71 SW6       30.01R WCI  13
ELY            FAIR      21  12  68 SW6       30.05R WCI  14
CLOQUET        FAIR      21  16  79 SW9       30.11S WCI  11
WHEATON        FAIR      25  21  86 S12       30.13S WCI  14
BRAINERD       FAIR      17  14  88 S7        30.11F FOG     WCI   8
HIBBING        FAIR      15  10  80 S3        30.07S
ALEXANDRIA     FAIR      22  17  81 SW12      30.11S WCI  10
SAINT CLOUD    FAIR      17  16  95 S6        30.16S FOG     WCI   9
MINNEAPOLIS    CLOUDY    20  16  84 SE6       30.23R WCI  12
$$

  *****  WEATHER ACROSS SOUTH DAKOTA  *****

CITY           SKY/WX    TMP DP  RH WIND       PRES   REMARKS
SIOUX FALLS    CLOUDY    22  16  78 CALM      30.14S
BROOKINGS      FAIR      18  16  92 SE5       30.12S WCI  11
WATERTOWN      FAIR      16  14  92 SE5       30.11R WCI   9
HURON          FAIR       9   7  92 CALM      30.12R
SISSETON         N/A     15  13  91 S7        30.10S WCI   5
ABERDEEN       FAIR       1  -3  83 SW7       30.12S WCI -12
MITCHELL       FAIR      23  19  85 S7        30.12S WCI  15
PIERRE         FAIR       8   4  83 NW5       30.09S WCI   0
MOBRIDGE       FAIR       4  -2  76 SE7       30.05S WCI  -8
RAPID CITY     MOCLDY    22  10  60 N12       30.03R WCI  10
$$

  *****  SOME WEATHER IN NEARBY STATES *****

CITY           SKY/WX    TMP DP  RH WIND       PRES   REMARKS
GLASGOW MT     FAIR       5   1  83 CALM      30.00R
GREAT FALLS MT FAIR      22   8  55 S15       30.06S WCI   9
CHEYENNE WY    CLOUDY    31  22  69 N6        29.96S
SCOTTSBLUFF NE CLOUDY    30  25  81 NW5       30.00S
OMAHA NE       FRZ RAIN  32  28  85 SE6       30.16S FOG
DES MOINES IA  FRZ RAIN  31  28  89 E8        30.21S FOG     WCI  23
DAVENPORT IA   CLOUDY    31  23  72 E5        30.28S
CHICAGO IL     CLOUDY    29  23  78 CALM      30.31F
EAU CLAIRE WI  FAIR      14  11  87 CALM      30.24R
LA CROSSE WI   FAIR     N/A N/A N/A E7        30.28S
$$

  *****  SOME NATIONAL WEATHER *****

CITY           SKY/WX    TMP DP  RH WIND       PRES   REMARKS
LA GUARDIA NY  FAIR      35  20  54 N6        30.41S
RALEIGH NC     CLOUDY    47  39  74 E6        30.37R
ATLANTA GA     CLOUDY    60  48  64 CALM      30.25F
NEW ORLEANS LA MOCLDY    65  64  97 SE10      30.12F
OKLAHOMA CITY  RAIN      38  38 100 N12       29.90F FOG
ALBUQUERQUE NM LGT RAIN  38  37  97 S8        29.92S
SALT LAKE CITY CLOUDY    29  24  82 N6        30.16S WCI  23
LOS ANGELES CA FAIR      56  52  86 CALM      30.06R
BOISE ID       FAIR       6   3  87 VRB3      30.38R FOG
SEATTLE WA     FAIR      36  32  85 CALM      30.27S
$$

*** WEATHER ACROSS MANITOBA...SASKATCHEWAN AND ONTARIO ***
                ***ONTARIO***

CITY           SKY/WX    TMP DP  RH WIND       PRES   REMARKS
GERALDTON      PTCLDY    25  16  68 W13       29.86S WCI  13
THUNDER BAY    CLEAR      9   5  85 N3        30.00S
SIOUX LOOKOUT  MOCLDY    21  14  73 SW9       29.88R WCI  11
TORONTO        CLEAR     25  19  80 SW5       30.35S WCI  19
BIG TROUT LK   CLOUDY    18  14  86 W10       29.67R WCI   6
PICKLE LAKE    NOT AVBL
DRYDEN         CLOUDY    21  14  73 SW13      29.90S WCI   9
KENORA         MOCLDY    14   7  73 S13G20    29.92R WCI   0
$$
                *** MANITOBA***

CITY           SKY/WX    TMP DP  RH WIND       PRES   REMARKS
BRANDON        PTCLDY    12   5  73 W12       29.92S WCI  -2
DAUPHIN        MOCLDY    28  18  64 W15       29.88S WCI  17
ISLAND LAKE    PTCLDY    18  14  86 W7        29.77R WCI   8
PILOT MOUND      N/A     10   7  85 NW2         N/A
THE PAS        CLEAR     27  19  74 W14       29.81R WCI  15
THOMPSON       CLOUDY    19  18  93 W3        29.77R
WINNIPEG       MOCLDY    14   7  73 S12       29.93R WCI   0
LYNN LAKE      CLOUDY    25  25 100 S2        29.73R
CHURCHILL      CRYSTALS  -8 -11  84 N15       29.91R DRFTSNOWWCI -29
GILLAM         FLURRIES   9   3  78 N14       29.79R WCI  -8
$$
                ***SASKATCHEWAN***

CITY           SKY/WX    TMP DP  RH WIND       PRES   REMARKS
ESTEVAN        PTCLDY    12   7  79 W10       29.94R WCI  -1
KINDERSLEY     PTCLDY    16  12  86 S9        29.96S WCI   4
LLOYDMINSTER   PTCLDY    25  18  74 W14       29.89R WCI  13
PRINCE ALBERT  PTCLDY    14  12  92 S3        29.87R
REGINA         PTCLDY    10   9  92 W3        29.92R
YORKTON        PTCLDY    19  14  79 W8        29.88S WCI   9
N. BATTLEFORD  CLEAR     25  19  80 NW3       29.93R
LA RONGE       CLEAR     28  23  80 SW6       29.78R WCI  22
SASKATOON      CLEAR     23  19  86 SW8       29.93R WCI  14
SWIFT CURRENT  CLEAR     21  18  86 W13       29.95R WCI   9
$$
NOTE: THESE ARE AUTOMATED STATIONS WITH LIMITED QUALITY CONTROL
      "FAIR" INDICATES FEW OR NO CLOUDS BELOW 12,000 FEET WITH NO
      SIGNIFICANT WEATHER AND/OR OBSTRUCTIONS TO VISIBILITY.
      SKY/WX - SKY CONDITION AND SIGNIFICANT WEATHER.
      TMP - AIR TEMPERATURE.    DP   - DEWPOINT TEMPERATURE.
      RH  - RELATIVE HUMIDITY.  PRES - PRESSURE.
      HX  - HEAT INDEX.         WCI  - WIND CHILL INDEX.
$



USA.gov is the U.S. government's official web portal to all federal, state and local government web resources and services.